This demonstration page uses our WeatherBlox Daily Observations layout. Learn more.

Left ArrowRight Arrow

41.86663, -103.66717

Hourly Observations for March 1, 2016

Temp ( °F °C ) Dew Point ( °F °C ) Humidity (%) Winds ( mph kmh ) Pressure ( in mb ) Visibility ( mi km ) Precip ( " mm )
12:53 am 00:53 Clear 28 -2.2 25 -3.9 88 88 NW 8 13 30.14 1021 10 16 N/A
1:53 am 01:53 Clear 24 -4.4 22 -5.6 91 91 N 7 11 30.17 1022 10 16 N/A
2:53 am 02:53 Clear 25 -3.9 22 -5.6 88 88 NW 8 13 30.17 1022 10 16 N/A
3:53 am 03:53 Clear 23 -5 20 -6.7 88 88 WNW 7 11 30.20 1023 10 16 N/A
4:53 am 04:53 Clear 22 -5.6 18 -7.8 85 85 NNW 7 11 30.24 1024 10 16 N/A
5:53 am 05:53 Clear 21 -6.1 16 -8.9 81 81 NNE 5 7 30.25 1024 10 16 N/A
6:53 am 06:53 Sunny 22 -5.6 17 -8.3 82 82 N 6 9 30.26 1025 10 16 N/A
7:53 am 07:53 Sunny 27 -2.8 22 -5.6 81 81 NW 7 11 30.25 1024 10 16 N/A
8:53 am 08:53 Sunny 32 undefined 24 -4.4 73 73 WNW 8 13 30.25 1024 10 16 N/A
9:53 am 09:53 Sunny 37 2.8 25 -3.9 62 62 WNW 10 17 30.23 1024 10 16 N/A
10:53 am 10:53 Sunny 43 6.1 25 -3.9 49 49 W 6 9 30.20 1023 10 16 N/A
11:53 am 11:53 Sunny 47 8.3 17 -8.3 30 30 NW 12 19 30.16 1021 10 16 N/A
12:53 pm 12:53 Sunny 48 8.9 14 -10 25 25 VRB 7 11 30.12 1020 10 16 N/A
1:53 pm 13:53 Sunny 51 10.6 11 -11.7 20 20 NW 12 19 30.08 1019 10 16 N/A
2:53 pm 14:53 Sunny 52 11.1 10 -12.2 18 18 NW 8 13 30.03 1017 10 16 N/A
3:53 pm 15:53 Mostly Sunny 53 11.7 12 -11.1 19 19 NW 9 15 30.01 1016 10 16 N/A
4:53 pm 16:53 Cloudy 36 2 34 1 93 93 S 5 7 30.00 1016 10 16 N/A
5:53 pm 17:53 Clear 45 7.2 16 -8.9 31 31 SSE 7 11 30.05 1018 10 16 N/A
6:53 pm 18:53 Clear 44 6.7 17 -8.3 34 34 SSE 8 13 30.04 1017 10 16 N/A
7:53 pm 19:53 Mostly Cloudy 45 7.2 16 -8.9 31 31 SE 9 15 30.01 1016 10 16 N/A
8:53 pm 20:53 Cloudy 43 6.1 21 -6.1 42 42 ESE 8 13 29.98 1015 10 16 N/A
9:53 pm 21:53 Partly Cloudy 41 5 24 -4.4 51 51 E 3 6 29.95 1014 10 16 N/A
10:53 pm 22:53 Clear 40 4.4 26 -3.3 58 58 N N/A 29.90 1013 10 16 N/A
11:53 pm 23:53 Clear 38 3.3 25 -3.9 60 60 E 5 7 29.88 1012 10 16 N/A

Powered by AerisWeather